• In Czech Republic
  • List of Countries
  • For 7 days
  • Water Temperature
  • Satellite Maps
  • Weather Map
  • Weather Widgets
  • user-avatar
    Login

    Hourly Weather Kulu

    Today, 26 September, Wednesday

    Time Temperature Precipitation Wind Pressure Humidity
    00:00 +16°C° 0 mm 6 mps 679 mmHg 60%
    01:00 +16°C° 0 mm 6 mps 679 mmHg 63%
    02:00 +15°C° 0 mm 6 mps 679 mmHg 65%
    03:00 +15°C° 0 mm 5 mps 679 mmHg 67%
    04:00 +14°C° 0 mm 5 mps 679 mmHg 68%
    05:00 +14°C° 0 mm 5 mps 679 mmHg 69%
    06:00 +14°C° 0 mm 6 mps 679 mmHg 68%
    07:00 +14°C° 0 mm 6 mps 679 mmHg 67%
    08:00 +14°C° 0 mm 7 mps 680 mmHg 67%
    09:00 +14°C° 0 mm 7 mps 680 mmHg 65%
    10:00 +15°C° 0 mm 7 mps 680 mmHg 62%
    11:00 +15°C° 0 mm 7 mps 680 mmHg 60%
    12:00 +15°C° 0 mm 8 mps 680 mmHg 58%
    13:00 +15°C° 0 mm 8 mps 679 mmHg 56%
    14:00 +15°C° 0 mm 9 mps 679 mmHg 54%
    15:00 +15°C° 0 mm 9 mps 679 mmHg 54%
    16:00 +13°C° 0 mm 9 mps 679 mmHg 55%
    17:00 +13°C° 0 mm 9 mps 679 mmHg 55%
    18:00 +12°C° 0 mm 9 mps 679 mmHg 58%
    19:00 +11°C° 0 mm 9 mps 679 mmHg 60%
    20:00 +11°C° 0 mm 8 mps 679 mmHg 62%
    21:00 +10°C° 0 mm 8 mps 680 mmHg 64%
    22:00 +10°C° 0 mm 8 mps 680 mmHg 66%
    23:00 +10°C° 0 mm 7 mps 680 mmHg 69%

    Tomorrow, 27 September, Thursday

    Time Temperature Precipitation Wind Pressure Humidity
    00:00 +10°C° 0 mm 7 mps 680 mmHg 70%
    01:00 +9°C° 0 mm 7 mps 680 mmHg 71%
    02:00 +9°C° 0 mm 6 mps 680 mmHg 72%
    03:00 +9°C° 0 mm 6 mps 680 mmHg 73%
    04:00 +9°C° 0 mm 6 mps 680 mmHg 74%
    05:00 +9°C° 0 mm 6 mps 680 mmHg 74%
    06:00 +10°C° 0 mm 7 mps 680 mmHg 72%
    07:00 +11°C° 0 mm 7 mps 680 mmHg 69%
    08:00 +11°C° 0 mm 8 mps 680 mmHg 66%
    09:00 +14°C° 0 mm 7 mps 681 mmHg 61%
    10:00 +15°C° 0 mm 7 mps 681 mmHg 55%
    11:00 +17°C° 0 mm 7 mps 681 mmHg 49%
    12:00 +19°C° 0 mm 6 mps 680 mmHg 46%
    13:00 +20°C° 0 mm 6 mps 680 mmHg 43%
    14:00 +21°C° 0 mm 6 mps 680 mmHg 40%
    15:00 +20°C° 0 mm 6 mps 680 mmHg 42%
    16:00 +20°C° 0 mm 6 mps 680 mmHg 44%
    17:00 +20°C° 0 mm 6 mps 679 mmHg 45%
    18:00 +17°C° 0 mm 6 mps 679 mmHg 50%
    19:00 +16°C° 0 mm 6 mps 680 mmHg 54%
    20:00 +15°C° 0 mm 6 mps 680 mmHg 58%
    21:00 +14°C° 0 mm 5 mps 680 mmHg 61%
    22:00 +14°C° 0 mm 5 mps 680 mmHg 63%
    23:00 +13°C° 0 mm 4 mps 680 mmHg 66%

    Day after tomorrow, 28 September, Friday

    Time Temperature Precipitation Wind Pressure Humidity
    00:00 +13°C° 0 mm 4 mps 680 mmHg 69%
    01:00 +12°C° 0 mm 3 mps 679 mmHg 71%
    02:00 +12°C° 0 mm 3 mps 679 mmHg 74%
    03:00 +11°C° 0 mm 3 mps 679 mmHg 76%
    04:00 +11°C° 0 mm 3 mps 679 mmHg 78%
    05:00 +10°C° 0 mm 3 mps 679 mmHg 81%
    06:00 +11°C° 0 mm 3 mps 679 mmHg 76%
    07:00 +12°C° 0 mm 3 mps 679 mmHg 72%
    08:00 +13°C° 0 mm 3 mps 679 mmHg 68%
    09:00 +16°C° 0 mm 2 mps 679 mmHg 61%
    10:00 +18°C° 0 mm 2 mps 679 mmHg 53%
    11:00 +20°C° 0 mm 2 mps 679 mmHg 46%
    12:00 +21°C° 0 mm 2 mps 679 mmHg 42%
    13:00 +23°C° 0 mm 1 mps 678 mmHg 38%
    14:00 +24°C° 0 mm 1 mps 678 mmHg 34%
    15:00 +24°C° 0 mm 1 mps 678 mmHg 33%
    16:00 +24°C° 0 mm 1 mps 677 mmHg 33%
    17:00 +24°C° 0 mm 2 mps 677 mmHg 33%
    18:00 +23°C° 0 mm 1 mps 677 mmHg 36%
    19:00 +22°C° 0 mm 1 mps 677 mmHg 39%
    20:00 +21°C° 0 mm 1 mps 677 mmHg 42%
    21:00 +20°C° 0 mm 1 mps 677 mmHg 43%
    22:00 +20°C° 0 mm 1 mps 677 mmHg 44%
    23:00 +20°C° 0 mm 1 mps 677 mmHg 46%

    29 September, Saturday

    Time Temperature Precipitation Wind Pressure Humidity
    00:00 +19°C° 0 mm 1 mps 677 mmHg 47%
    01:00 +18°C° 0 mm 1 mps 676 mmHg 49%
    02:00 +18°C° 0 mm 1 mps 676 mmHg 51%
    03:00 +18°C° 0 mm 1 mps 676 mmHg 52%
    04:00 +16°C° 0 mm 1 mps 676 mmHg 53%
    05:00 +16°C° 0 mm 1 mps 676 mmHg 53%
    06:00 +19°C° 0 mm 1 mps 676 mmHg 48%
    07:00 +20°C° 0 mm 1 mps 677 mmHg 44%
    08:00 +21°C° 0 mm 2 mps 677 mmHg 39%
    09:00 +23°C° 0 mm 2 mps 677 mmHg 34%
    10:00 +25°C° 0 mm 3 mps 677 mmHg 30%
    11:00 +27°C° 0 mm 4 mps 677 mmHg 25%
    12:00 +28°C° 0 mm 4 mps 677 mmHg 24%
    13:00 +29°C° 0 mm 4 mps 677 mmHg 22%
    14:00 +30°C° 0 mm 5 mps 676 mmHg 21%
    15:00 +29°C° 0 mm 5 mps 676 mmHg 21%
    16:00 +29°C° 0 mm 4 mps 676 mmHg 22%
    17:00 +29°C° 0 mm 4 mps 676 mmHg 22%
    18:00 +27°C° 0 mm 4 mps 676 mmHg 25%
    19:00 +26°C° 0 mm 4 mps 676 mmHg 28%
    20:00 +25°C° 0 mm 4 mps 676 mmHg 31%
    21:00 +23°C° 0 mm 4 mps 676 mmHg 35%
    22:00 +22°C° 0 mm 4 mps 676 mmHg 39%
    23:00 +21°C° 0 mm 3 mps 676 mmHg 43%

    30 September, Sunday

    Time Temperature Precipitation Wind Pressure Humidity
    00:00 +20°C° 0 mm 3 mps 676 mmHg 46%
    01:00 +19°C° 0 mm 3 mps 676 mmHg 49%
    02:00 +19°C° 0 mm 3 mps 676 mmHg 52%
    03:00 +18°C° 0 mm 3 mps 676 mmHg 55%
    04:00 +18°C° 0 mm 2 mps 676 mmHg 57%
    05:00 +17°C° 0 mm 2 mps 676 mmHg 60%
    06:00 +18°C° 0 mm 3 mps 676 mmHg 57%
    07:00 +19°C° 0 mm 3 mps 676 mmHg 54%
    08:00 +20°C° 0 mm 3 mps 677 mmHg 51%
    09:00 +22°C° 0 mm 3 mps 677 mmHg 45%
    10:00 +23°C° 0 mm 4 mps 677 mmHg 39%
    11:00 +25°C° 0 mm 4 mps 677 mmHg 33%
    12:00 +26°C° 0 mm 4 mps 677 mmHg 30%
    13:00 +27°C° 0 mm 4 mps 676 mmHg 27%
    14:00 +28°C° 0 mm 3 mps 676 mmHg 25%
    15:00 +28°C° 0 mm 3 mps 676 mmHg 25%
    16:00 +28°C° 0 mm 3 mps 676 mmHg 25%
    17:00 +27°C° 0 mm 2 mps 676 mmHg 25%
    18:00 +26°C° 0 mm 3 mps 676 mmHg 28%
    19:00 +25°C° 0 mm 3 mps 676 mmHg 31%
    20:00 +24°C° 0 mm 3 mps 676 mmHg 34%
    21:00 +22°C° 0 mm 3 mps 676 mmHg 36%
    22:00 +21°C° 0 mm 3 mps 676 mmHg 39%
    23:00 +21°C° 0 mm 3 mps 676 mmHg 42%

    1 October, Monday

    Time Temperature Precipitation Wind Pressure Humidity
    00:00 +20°C° 0 mm 3 mps 676 mmHg 46%
    01:00 +19°C° 0 mm 3 mps 676 mmHg 50%
    02:00 +19°C° 0 mm 2 mps 675 mmHg 53%
    03:00 +18°C° 0 mm 2 mps 675 mmHg 57%
    04:00 +18°C° 0 mm 2 mps 676 mmHg 60%
    05:00 +18°C° 0 mm 1 mps 676 mmHg 63%
    06:00 +19°C° 0 mm 1 mps 676 mmHg 60%
    07:00 +20°C° 0 mm 1 mps 676 mmHg 57%
    08:00 +20°C° 0 mm 2 mps 677 mmHg 54%
    09:00 +21°C° 0 mm 2 mps 677 mmHg 49%
    10:00 +23°C° 0 mm 2 mps 677 mmHg 45%
    11:00 +24°C° 0 mm 2 mps 677 mmHg 40%
    12:00 +25°C° 0 mm 2 mps 677 mmHg 38%
    13:00 +26°C° 0 mm 3 mps 676 mmHg 36%
    14:00 +26°C° 0 mm 3 mps 676 mmHg 33%
    15:00 +26°C° 0 mm 3 mps 676 mmHg 34%
    16:00 +26°C° 0 mm 3 mps 676 mmHg 34%
    17:00 +25°C° 0 mm 3 mps 676 mmHg 35%
    18:00 +24°C° 0 mm 2 mps 676 mmHg 38%
    19:00 +23°C° 0 mm 2 mps 676 mmHg 42%
    20:00 +21°C° 0 mm 2 mps 677 mmHg 46%
    21:00 +21°C° 0 mm 2 mps 677 mmHg 49%
    22:00 +20°C° 0 mm 2 mps 677 mmHg 52%
    23:00 +20°C° 0 mm 1 mps 677 mmHg 54%
    Show more